KOMPSAT 3

导读

KOMPSAT 3(中文称阿里郎3号)是韩国航空航天研究所参与研发的多用途光学遥感卫星,于2012年5月17日在种子岛由H-2A火箭发射升空。卫星运行于近太阳同步轨道,全色分辨率可达0.7米,多光谱分辨率2.8米,重访周期3天,幅宽15公里,主要服务于国土资源测绘、灾害监测应急、公共安全与城市规划等精密地面观测任务,是韩国自主高分辨率对地观测体系的重要组成部分。

Basic Information
目录编号:
38338
目录名称:
KOMPSAT 3
国际标识:
2012-025B
轨道中心:
EARTH
卫星名称:
KOMPSAT 3
卫星全名:
--
卫星状态:
在轨 (已飞行5230 天)
发射日期:
2012-05-17 UTC
国别 :
韩国 (KR)
星等 :
--
This satellite is enrolled in the Space Conjunction Data Service (SCDS) and the current flight risk assessment level is: No High Risk
Orbit Information
数据来源 国际轨道数据 AOE轨道数据
星历时间 2026-09-11T15:43:14+0800
9小时前
查看轨道信息
2026-09-06T07:00:00+0800
5天前
查看轨道信息
半长轴 7063.995km 7064.007km
偏心率 0.0004857 0.0004384
轨道倾角 98.127° 98.126°
近地点辐角 190.543° 210.324°
升交点赤经 210.335° 205.057°
平近点角 169.567° 13.030°
近地点 682.427km 682.773km
远地点 689.289km 688.967km
周期 98.477分钟 98.477分钟
每日圈数 14.62269 14.622652
Detailed Information
使用方式:
暂无
2D Orbit Map
3D Orbit Map
Orbit Altitude Analysis Chart
Orbit Inclination Analysis Chart
Orbit Comprehensive Analysis Chart
View Comprehensive Chart
Conjunction Data List
Event ID Objects TCA Miss Dist (km) Collision Risk Probability Collision Risk Index (CRI) Action
CDM_260911-230303-833805-289629
2026-09-11T
23:03:49+0000
2.388 km
极远距离
1.893444E-6 低风险 0.41
Miss Distance Evolution Trend with All Objects
Collision Probability Evolution Trend with All Objects